CHAR37 Weather Reports


time (UTC)temp
F
wind
direction
speed
knots
gust
knots
rain 1hr
in
rain 24hr
in
rain mn
in
humidity
%
barometer
mb
20260507093049 47 0 0.0 3.5 0.00 0.35 0.13 88 1005.6
20260507091546 47 338 4.3 7.8 0.00 0.35 0.13 87 1005.6
20260507090050 48 331 3.5 11.3 0.00 0.35 0.13 86 1005.6
20260507084548 48 338 6.1 12.2 0.00 0.35 0.13 87 1005.8
20260507083049 48 329 7.0 11.3 0.00 0.35 0.13 90 1005.0
20260507081553 49 334 4.3 7.8 0.00 0.35 0.13 91 1005.4
20260507080053 49 333 2.6 8.7 0.00 0.35 0.13 91 1005.1
20260507074558 49 325 4.3 8.7 0.00 0.35 0.13 91 1005.2
20260507073101 49 350 4.3 12.2 0.00 0.35 0.13 91 1004.9
20260507071554 49 335 4.3 8.7 0.00 0.35 0.13 92 1005.0
20260507070105 50 320 3.5 6.1 0.00 0.35 0.13 93 1004.8
20260507064556 50 336 1.7 4.3 0.00 0.35 0.13 94 1004.4
20260507060055 50 335 4.3 7.8 0.00 0.35 0.13 95 1004.2
20260507054550 51 338 5.2 13.0 0.01 0.35 0.13 96 1004.5
20260507053102 51 355 5.2 13.0 0.05 0.35 0.13 97 1004.1
20260507051553 52 336 2.6 7.8 0.11 0.35 0.13 97 1004.3
20260507050050 51 344 3.5 7.0 0.13 0.35 0.13 97 1003.9
20260507044606 50 323 1.7 5.2 0.13 0.34 0.12 97 1003.7
20260507043050 50 298 6.1 13.9 0.09 0.30 0.08 97 1004.2
20260507041551 51 231 5.2 11.3 0.03 0.24 0.02 97 1003.7
20260507040101 51 187 6.1 9.6 0.01 0.22 0.00 97 1003.3
20260507034547 50 215 6.1 10.4 0.00 0.21 0.21 97 1003.4
20260507033107 50 188 7.8 14.8 0.01 0.21 0.21 97 1003.5
20260507031559 50 184 9.6 15.6 0.01 0.21 0.21 97 1003.5
20260507030107 50 170 10.4 16.5 0.01 0.21 0.21 97 1003.5
20260507014559 50 187 10.4 15.6 0.01 0.20 0.20 96 1004.6
20260507013100 50 166 10.4 16.5 0.02 0.20 0.20 96 1004.7
20260507011557 50 184 10.4 14.8 0.03 0.20 0.20 96 1004.8
20260507010054 50 161 12.2 19.1 0.02 0.19 0.19 96 1004.8
20260507004554 50 184 10.4 18.2 0.02 0.19 0.19 96 1005.0
20260507003050 50 173 12.2 20.9 0.01 0.18 0.18 96 1005.1
20260507001556 50 150 12.2 20.9 0.00 0.17 0.17 95 1005.1
20260507000051 50 159 12.2 19.1 0.00 0.17 0.17 95 1004.9
20260506234555 50 173 13.0 22.6 0.00 0.17 0.17 95 1004.9
20260506233050 51 187 13.9 23.5 0.00 0.17 0.17 94 1005.2
20260506231554 51 173 12.2 18.2 0.00 0.17 0.17 94 1005.2
20260506230050 51 198 12.2 19.1 0.01 0.17 0.17 94 1005.4
20260506150049 50 191 7.8 11.3 0.00 0.00 0.00 90 1008.8
20260506144549 51 180 8.7 13.0 0.00 0.00 0.00 90 1008.6
20260506143045 50 169 7.0 13.9 0.00 0.00 0.00 90 1008.9
20260506141550 50 167 9.6 13.9 0.00 0.00 0.00 91 1009.2
20260506140048 50 171 8.7 13.0 0.00 0.00 0.00 91 1009.3
20260506134553 50 173 8.7 13.9 0.00 0.00 0.00 90 1009.2
20260506133047 50 175 9.6 13.9 0.00 0.00 0.00 90 1009.0
20260506131550 50 171 9.6 13.0 0.00 0.00 0.00 90 1009.0
20260506130059 51 167 9.6 13.0 0.00 0.00 0.00 90 1008.9
20260506124557 51 175 10.4 14.8 0.00 0.00 0.00 89 1009.0
20260506123047 51 192 6.1 9.6 0.00 0.00 0.00 89 1009.1
20260506121548 51 182 6.1 10.4 0.00 0.00 0.00 89 1009.1
20260506120050 51 175 7.8 12.2 0.00 0.00 0.00 89 1009.2